contact:dominique.lefevre@mio.osupytheas.fr, maurice.libes@osupytheas.fr, didier.mallarino@osupytheas.fr
Project:EMSO http://www.emso-fr.org/EMSO-France
Depth: 2436.0 m
Title:EMSO Ligure Ouest : Data MII capteur AQUADOPP
Date,Latitude,Longitude,X_East,Y_North,Z_Up,Amplitude_X,Amplitude_Y,Amplitude_Z,Batterie,SoundSpeed,Heading,Pitch,Roll,Pressure,TIS,Speed,Direction
, degrees North, degrees East, m.s-1, m.s-1,m.s-1, 1, 1, 1, Volt, m.s-1, degree, degree, degree, dbar, degree_C, m.s-1, degree
2021-01-18T00:04:03,42.805,6.029,0.034,-0.029,-0.017,106.0,107.0,102.0,13.4,1505.2,328.1,-0.8,1.8,2470.391,13.3,0.044,130.5
2021-01-18T00:07:03,42.805,6.029,0.058,-0.016,0.019,106.0,108.0,102.0,13.4,1505.3,323.1,-0.7,1.8,2470.433,13.31,0.06,105.4
2021-01-18T00:10:03,42.805,6.029,0.038,-0.025,-0.005,106.0,107.0,103.0,13.4,1505.3,323.7,-0.7,1.8,2470.397,13.31,0.045,123.3
2021-01-18T00:13:03,42.805,6.029,0.053,-0.039,0.009,106.0,106.0,102.0,13.3,1505.3,326.5,-0.7,1.8,2470.382,13.32,0.065,126.3
2021-01-18T00:16:03,42.805,6.029,0.04,-0.033,0.011,106.0,107.0,102.0,13.4,1505.3,324.2,-0.7,1.8,2470.396,13.32,0.051,129.5
2021-01-18T00:19:03,42.805,6.029,0.054,-0.022,0.009,106.0,107.0,103.0,13.3,1505.3,327.8,-0.7,1.8,2470.346,13.32,0.058,112.2
2021-01-18T00:22:03,42.805,6.029,0.038,-0.02,0.005,105.0,107.0,102.0,13.3,1505.3,326.0,-0.7,1.8,2470.396,13.32,0.042,117.8
2021-01-18T00:25:03,42.805,6.029,0.06,-0.029,0.023,105.0,106.0,103.0,13.4,1505.3,323.5,-0.7,1.8,2470.348,13.32,0.066,115.8
2021-01-18T00:28:03,42.805,6.029,0.054,-0.043,0.01,105.0,107.0,103.0,13.4,1505.3,326.7,-0.7,1.9,2470.389,13.32,0.069,128.5
2021-01-18T00:31:03,42.805,6.029,0.073,-0.015,-0.003,106.0,106.0,103.0,13.3,1505.3,324.5,-0.7,1.8,2470.376,13.32,0.074,101.6
2021-01-18T00:34:03,42.805,6.029,0.041,-0.041,-0.004,106.0,106.0,103.0,13.3,1505.3,324.9,-0.7,1.8,2470.341,13.32,0.057,135.0
2021-01-18T00:37:03,42.805,6.029,0.042,-0.043,-0.024,106.0,106.0,103.0,13.4,1505.3,327.9,-0.7,1.8,2470.344,13.32,0.06,135.7
2021-01-18T00:40:03,42.805,6.029,0.05,-0.033,-0.004,106.0,106.0,102.0,13.4,1505.3,327.8,-0.7,1.8,2470.338,13.32,0.059,123.4
2021-01-18T00:43:03,42.805,6.029,0.045,-0.05,-0.025,106.0,106.0,102.0,13.4,1505.3,324.4,-0.7,1.8,2470.364,13.32,0.067,138.0
2021-01-18T00:46:03,42.805,6.029,0.05,-0.029,0.004,107.0,105.0,103.0,13.4,1505.3,323.0,-0.7,1.8,2470.321,13.32,0.057,120.1
2021-01-18T00:49:03,42.805,6.029,0.068,-0.047,-0.043,105.0,106.0,102.0,13.4,1505.3,323.2,-0.7,1.8,2470.337,13.32,0.082,124.7
2021-01-18T00:52:03,42.805,6.029,0.057,-0.029,0.041,106.0,106.0,102.0,13.4,1505.3,323.1,-0.7,1.8,2470.332,13.32,0.063,117.0
2021-01-18T00:55:03,42.805,6.029,0.04,-0.041,-0.004,105.0,106.0,102.0,13.4,1505.3,326.6,-0.7,1.8,2470.331,13.32,0.057,135.7
2021-01-18T00:58:03,42.805,6.029,0.056,-0.043,-0.012,106.0,106.0,102.0,13.3,1505.3,323.3,-0.7,1.8,2470.35,13.32,0.07,127.5
2021-01-18T01:04:03,42.805,6.029,0.032,-0.036,0.028,107.0,107.0,104.0,13.4,1505.2,325.0,-0.7,1.8,2470.397,13.3,0.048,138.4
2021-01-18T01:07:03,42.805,6.029,0.03,-0.04,-0.01,105.0,106.0,103.0,13.4,1505.3,325.7,-0.7,1.8,2470.378,13.31,0.05,143.1
2021-01-18T01:10:03,42.805,6.029,0.052,-0.018,0.028,107.0,107.0,101.0,13.4,1505.3,326.0,-0.7,1.9,2470.378,13.31,0.055,109.1
2021-01-18T01:13:03,42.805,6.029,0.03,-0.031,0.002,107.0,107.0,102.0,13.3,1505.3,325.5,-0.7,1.8,2470.384,13.31,0.043,135.9
2021-01-18T01:16:03,42.805,6.029,0.053,-0.027,0.021,106.0,107.0,103.0,13.4,1505.3,325.7,-0.7,1.8,2470.348,13.32,0.059,117.0
2021-01-18T01:19:03,42.805,6.029,0.069,-0.033,0.002,104.0,107.0,102.0,13.3,1505.3,328.5,-0.7,1.9,2470.321,13.32,0.076,115.6
2021-01-18T01:22:03,42.805,6.029,0.039,-0.009,-0.022,106.0,106.0,102.0,13.4,1505.3,327.5,-0.7,1.8,2470.328,13.32,0.04,103.0
2021-01-18T01:25:03,42.805,6.029,0.043,-0.02,0.005,106.0,106.0,102.0,13.4,1505.3,323.6,-0.7,1.9,2470.299,13.32,0.047,114.9
2021-01-18T01:28:03,42.805,6.029,0.068,-0.041,-0.002,105.0,107.0,102.0,13.4,1505.3,322.9,-0.7,1.8,2470.326,13.32,0.079,121.1
2021-01-18T01:31:03,42.805,6.029,0.04,-0.037,-0.002,105.0,106.0,102.0,13.4,1505.3,322.8,-0.7,1.8,2470.316,13.32,0.054,132.8
2021-01-18T01:34:03,42.805,6.029,0.035,-0.048,-0.002,106.0,106.0,102.0,13.4,1505.3,323.7,-0.7,1.8,2470.342,13.32,0.059,143.9
2021-01-18T01:37:03,42.805,6.029,0.052,-0.048,-0.017,106.0,106.0,102.0,13.3,1505.3,325.9,-0.7,1.8,2470.324,13.32,0.07,132.7
2021-01-18T01:40:03,42.805,6.029,0.053,-0.046,-0.015,107.0,105.0,101.0,13.4,1505.3,324.6,-0.7,1.8,2470.304,13.32,0.07,131.0
2021-01-18T01:43:03,42.805,6.029,0.052,-0.026,-0.001,106.0,106.0,101.0,13.3,1505.3,325.7,-0.7,1.8,2470.309,13.32,0.058,116.6
2021-01-18T01:46:03,42.805,6.029,0.023,-0.044,-0.005,102.0,104.0,103.0,13.3,1505.3,327.7,-0.7,1.8,2470.313,13.32,0.049,152.4
2021-01-18T01:49:03,42.805,6.029,0.032,-0.029,-0.007,105.0,106.0,103.0,13.3,1505.3,323.0,-0.7,1.8,2470.324,13.32,0.043,132.2
2021-01-18T01:52:03,42.805,6.029,0.029,-0.042,-0.023,105.0,106.0,102.0,13.4,1505.3,325.5,-0.7,1.8,2470.307,13.32,0.051,145.4
2021-01-18T01:55:03,42.805,6.029,0.028,-0.045,-0.033,106.0,105.0,102.0,13.4,1505.3,326.4,-0.7,1.8,2470.306,13.32,0.053,148.1
2021-01-18T01:58:03,42.805,6.029,0.063,-0.038,-0.006,105.0,105.0,102.0,13.4,1505.3,326.7,-0.7,1.9,2470.289,13.32,0.073,121.1
2021-01-18T02:04:03,42.805,6.029,0.058,-0.039,0.017,106.0,105.0,103.0,13.4,1505.2,324.4,-0.7,1.8,2470.315,13.3,0.069,123.9
2021-01-18T02:07:03,42.805,6.029,0.053,-0.032,0.012,105.0,106.0,102.0,13.4,1505.3,326.1,-0.7,1.8,2470.368,13.31,0.061,121.1
2021-01-18T02:10:03,42.805,6.029,0.055,-0.04,0.003,105.0,106.0,102.0,13.4,1505.3,327.5,-0.7,1.8,2470.33,13.31,0.068,126.0
2021-01-18T02:13:03,42.805,6.029,0.062,-0.04,-0.009,104.0,105.0,102.0,13.4,1505.3,326.3,-0.7,1.8,2470.364,13.31,0.073,122.8
2021-01-18T02:16:03,42.805,6.029,0.038,-0.051,0.009,104.0,107.0,102.0,13.4,1505.3,327.1,-0.7,1.8,2470.322,13.32,0.063,143.3
2021-01-18T02:19:03,42.805,6.029,0.049,-0.036,0.005,105.0,105.0,101.0,13.4,1505.3,322.9,-0.7,1.8,2470.338,13.32,0.06,126.3
2021-01-18T02:22:03,42.805,6.029,0.054,-0.045,0.011,105.0,105.0,102.0,13.4,1505.3,326.4,-0.7,1.8,2470.327,13.32,0.07,129.8
2021-01-18T02:25:03,42.805,6.029,0.034,-0.042,0.013,106.0,107.0,102.0,13.3,1505.3,326.6,-0.7,1.8,2470.299,13.32,0.054,141.0
2021-01-18T02:28:03,42.805,6.029,0.065,-0.032,-0.001,106.0,106.0,101.0,13.4,1505.3,324.5,-0.7,1.8,2470.321,13.32,0.072,116.2
2021-01-18T02:31:03,42.805,6.029,0.051,-0.068,-0.009,105.0,106.0,102.0,13.4,1505.3,326.1,-0.7,1.8,2470.294,13.32,0.084,143.1
2021-01-18T02:34:03,42.805,6.029,0.072,-0.055,0.013,106.0,105.0,103.0,13.4,1505.3,326.3,-0.7,1.8,2470.336,13.32,0.09,127.4
2021-01-18T02:37:03,42.805,6.029,0.049,-0.037,0.01,105.0,105.0,103.0,13.3,1505.3,326.0,-0.7,1.8,2470.273,13.32,0.061,127.1
2021-01-18T02:40:03,42.805,6.029,0.043,-0.044,0.003,107.0,106.0,102.0,13.4,1505.3,323.6,-0.7,1.8,2470.285,13.32,0.061,135.7
2021-01-18T02:43:03,42.805,6.029,0.053,-0.032,0.021,105.0,106.0,102.0,13.4,1505.3,326.9,-0.7,1.8,2470.311,13.32,0.061,121.1
2021-01-18T02:46:03,42.805,6.029,0.053,-0.041,-0.015,105.0,106.0,102.0,13.4,1505.3,325.9,-0.7,1.8,2470.298,13.32,0.067,127.7
2021-01-18T02:49:03,42.805,6.029,0.044,-0.04,0.029,106.0,107.0,102.0,13.4,1505.3,323.7,-0.7,1.8,2470.297,13.32,0.059,132.3
2021-01-18T02:52:03,42.805,6.029,0.027,-0.058,-0.013,105.0,105.0,102.0,13.3,1505.3,325.7,-0.7,1.8,2470.312,13.32,0.063,155.0
2021-01-18T02:55:03,42.805,6.029,0.079,-0.034,0.019,105.0,106.0,102.0,13.4,1505.3,325.2,-0.7,1.8,2470.282,13.32,0.086,113.3
2021-01-18T02:58:03,42.805,6.029,0.068,-0.03,0.015,106.0,106.0,103.0,13.3,1505.3,327.5,-0.7,1.8,2470.285,13.32,0.074,113.8
2021-01-18T03:04:03,42.805,6.029,0.042,-0.054,0.006,106.0,105.0,103.0,13.4,1505.2,325.3,-0.7,1.8,2470.349,13.3,0.068,142.1
2021-01-18T03:07:03,42.805,6.029,0.037,-0.031,-0.005,105.0,106.0,102.0,13.4,1505.3,324.4,-0.7,1.9,2470.305,13.31,0.048,130.0
2021-01-18T03:10:03,42.805,6.029,0.06,-0.045,0.02,105.0,105.0,103.0,13.4,1505.3,328.1,-0.7,1.8,2470.3,13.31,0.074,126.9
2021-01-18T03:13:03,42.805,6.029,0.062,-0.039,0.03,105.0,106.0,102.0,13.4,1505.3,323.0,-0.7,1.8,2470.262,13.31,0.073,122.2
2021-01-18T03:16:03,42.805,6.029,0.063,-0.041,-0.003,105.0,105.0,102.0,13.4,1505.3,327.3,-0.7,1.8,2470.299,13.32,0.075,123.1
2021-01-18T03:19:03,42.805,6.029,0.062,-0.041,0.006,106.0,105.0,102.0,13.4,1505.3,324.8,-0.7,1.8,2470.326,13.32,0.074,123.5
2021-01-18T03:22:03,42.805,6.029,0.043,-0.027,0.006,106.0,107.0,102.0,13.4,1505.3,325.9,-0.7,1.8,2470.271,13.32,0.05,122.1
2021-01-18T03:25:03,42.805,6.029,0.05,-0.057,-0.008,105.0,107.0,103.0,13.3,1505.3,326.3,-0.7,1.9,2470.306,13.32,0.075,138.7
2021-01-18T03:28:03,42.805,6.029,0.039,-0.02,0.004,106.0,106.0,102.0,13.4,1505.3,326.3,-0.7,1.8,2470.331,13.32,0.043,117.1
2021-01-18T03:31:03,42.805,6.029,0.037,-0.038,0.009,106.0,107.0,103.0,13.3,1505.3,324.5,-0.7,1.9,2470.29,13.32,0.053,135.8
2021-01-18T03:34:03,42.805,6.029,0.046,-0.045,-0.028,106.0,105.0,102.0,13.4,1505.3,325.2,-0.7,1.8,2470.257,13.32,0.064,134.4
2021-01-18T03:37:03,42.805,6.029,0.048,-0.049,0.008,106.0,106.0,102.0,13.4,1505.3,326.3,-0.7,1.8,2470.303,13.32,0.068,135.6
2021-01-18T03:40:03,42.805,6.029,0.034,-0.032,-0.019,106.0,105.0,102.0,13.4,1505.3,324.4,-0.7,1.8,2470.262,13.32,0.046,133.3
2021-01-18T03:43:03,42.805,6.029,0.038,-0.048,-0.019,106.0,107.0,102.0,13.4,1505.3,323.1,-0.7,1.8,2470.317,13.32,0.061,141.6
2021-01-18T03:46:03,42.805,6.029,0.04,-0.073,0.006,105.0,107.0,102.0,13.4,1505.3,327.2,-0.7,1.8,2470.349,13.32,0.083,151.3
2021-01-18T03:49:03,42.805,6.029,0.064,-0.035,0.008,105.0,105.0,102.0,13.4,1505.3,324.5,-0.7,1.8,2470.245,13.32,0.072,118.7
2021-01-18T03:52:03,42.805,6.029,0.06,-0.045,0.0,106.0,105.0,102.0,13.4,1505.3,326.7,-0.7,1.9,2470.256,13.32,0.074,126.9
2021-01-18T03:55:03,42.805,6.029,0.067,-0.044,0.025,105.0,105.0,102.0,13.4,1505.3,325.1,-0.7,1.8,2470.29,13.32,0.08,123.3
2021-01-18T03:58:03,42.805,6.029,0.062,-0.039,0.004,105.0,106.0,103.0,13.4,1505.3,326.4,-0.7,1.9,2470.244,13.32,0.073,122.2
2021-01-18T04:04:03,42.805,6.029,0.044,-0.038,-0.012,105.0,106.0,102.0,13.4,1505.2,325.3,-0.7,1.8,2470.343,13.3,0.058,130.8
2021-01-18T04:07:03,42.805,6.029,0.063,-0.048,0.004,106.0,105.0,102.0,13.4,1505.3,323.7,-0.7,1.8,2470.285,13.31,0.079,127.3
2021-01-18T04:10:03,42.805,6.029,0.074,-0.036,0.002,105.0,106.0,103.0,13.3,1505.3,324.2,-0.7,1.8,2470.292,13.31,0.082,115.9
2021-01-18T04:13:03,42.805,6.029,0.034,-0.058,0.0,106.0,105.0,101.0,13.4,1505.3,326.5,-0.7,1.8,2470.307,13.31,0.067,149.6
2021-01-18T04:16:03,42.805,6.029,0.049,-0.041,0.011,105.0,106.0,103.0,13.4,1505.3,324.5,-0.7,1.8,2470.347,13.32,0.063,129.9
2021-01-18T04:19:03,42.805,6.029,0.045,-0.049,0.007,105.0,105.0,102.0,13.4,1505.3,324.2,-0.7,1.8,2470.268,13.32,0.066,137.4
2021-01-18T04:22:03,42.805,6.029,0.049,-0.054,0.018,105.0,105.0,103.0,13.3,1505.3,323.9,-0.7,1.9,2470.279,13.32,0.072,137.8
2021-01-18T04:25:03,42.805,6.029,0.028,-0.041,-0.018,105.0,105.0,103.0,13.4,1505.3,325.9,-0.7,1.8,2470.285,13.32,0.049,145.7
2021-01-18T04:28:03,42.805,6.029,0.052,-0.044,0.022,106.0,106.0,102.0,13.4,1505.3,328.3,-0.7,1.8,2470.266,13.32,0.068,130.2
2021-01-18T04:31:03,42.805,6.029,0.028,-0.021,0.003,106.0,106.0,102.0,13.4,1505.3,324.4,-0.7,1.8,2470.264,13.32,0.035,126.9
2021-01-18T04:34:03,42.805,6.029,0.061,-0.037,0.014,106.0,106.0,102.0,13.4,1505.3,326.4,-0.7,1.8,2470.278,13.32,0.071,121.2
2021-01-18T04:37:03,42.805,6.029,0.044,-0.021,-0.006,105.0,105.0,102.0,13.4,1505.3,326.6,-0.7,1.8,2470.277,13.32,0.048,115.5
2021-01-18T04:40:03,42.805,6.029,0.065,-0.036,-0.006,106.0,106.0,103.0,13.4,1505.3,327.3,-0.7,1.9,2470.271,13.32,0.074,119.0
2021-01-18T04:43:03,42.805,6.029,0.071,-0.027,-0.003,105.0,105.0,103.0,13.4,1505.3,323.1,-0.7,1.8,2470.282,13.32,0.075,110.8
2021-01-18T04:49:03,42.805,6.029,0.045,-0.022,-0.031,107.0,107.0,102.0,13.4,1505.2,325.4,-0.7,1.8,2470.331,13.3,0.05,116.1
2021-01-18T04:52:03,42.805,6.029,0.06,-0.053,0.003,105.0,106.0,101.0,13.4,1505.3,324.2,-0.7,1.8,2470.286,13.31,0.08,131.5
2021-01-18T04:55:03,42.805,6.029,0.039,-0.029,0.003,105.0,106.0,102.0,13.4,1505.3,324.0,-0.7,1.8,2470.328,13.31,0.048,126.6
2021-01-18T04:58:03,42.805,6.029,0.027,-0.038,-0.006,106.0,106.0,102.0,13.4,1505.3,324.5,-0.7,1.8,2470.304,13.31,0.046,144.6
2021-01-18T05:04:03,42.805,6.029,0.063,-0.049,-0.025,106.0,106.0,101.0,13.3,1505.2,326.5,-0.7,1.8,2470.345,13.3,0.079,127.9
2021-01-18T05:07:03,42.805,6.029,0.058,-0.055,0.011,106.0,105.0,102.0,13.4,1505.3,323.7,-0.7,1.9,2470.346,13.31,0.079,133.5
2021-01-18T05:10:03,42.805,6.029,0.038,-0.024,-0.004,105.0,105.0,102.0,13.3,1505.3,325.3,-0.7,1.8,2470.312,13.31,0.044,122.3
2021-01-18T05:13:03,42.805,6.029,0.052,-0.02,-0.002,106.0,107.0,103.0,13.4,1505.3,325.0,-0.7,1.8,2470.32,13.31,0.055,111.0
2021-01-18T05:16:03,42.805,6.029,0.034,-0.041,-0.029,106.0,106.0,102.0,13.4,1505.3,325.8,-0.7,1.8,2470.332,13.32,0.053,140.3
2021-01-18T05:19:03,42.805,6.029,0.063,-0.024,-0.001,105.0,106.0,102.0,13.3,1505.3,324.4,-0.7,1.8,2470.302,13.32,0.067,110.9
2021-01-18T05:22:03,42.805,6.029,0.069,-0.028,0.038,105.0,106.0,102.0,13.4,1505.3,324.5,-0.7,1.8,2470.301,13.32,0.074,112.1
2021-01-18T05:25:03,42.805,6.029,0.042,-0.025,-0.001,105.0,107.0,102.0,13.4,1505.3,324.4,-0.7,1.9,2470.3,13.32,0.048,120.8
2021-01-18T05:28:03,42.805,6.029,0.038,-0.038,0.035,105.0,106.0,103.0,13.4,1505.3,326.7,-0.6,1.8,2470.316,13.32,0.053,135.0
2021-01-18T05:31:03,42.805,6.029,0.055,-0.026,0.008,106.0,107.0,103.0,13.3,1505.3,327.7,-0.7,1.9,2470.299,13.32,0.06,115.3
2021-01-18T05:34:03,42.805,6.029,0.037,-0.044,0.024,105.0,106.0,103.0,13.4,1505.3,326.5,-0.7,1.8,2470.278,13.32,0.057,139.9
2021-01-18T05:37:03,42.805,6.029,0.054,-0.04,0.028,106.0,107.0,102.0,13.4,1505.3,322.7,-0.7,1.8,2470.297,13.32,0.067,126.5
2021-01-18T05:40:03,42.805,6.029,0.048,-0.025,0.006,105.0,106.0,103.0,13.4,1505.3,326.7,-0.7,1.8,2470.314,13.32,0.054,117.5
2021-01-18T05:43:03,42.805,6.029,0.055,-0.06,0.011,106.0,106.0,103.0,13.3,1505.3,325.4,-0.7,1.8,2470.3,13.32,0.081,137.5
2021-01-18T05:46:03,42.805,6.029,0.067,-0.024,-0.007,105.0,106.0,102.0,13.3,1505.3,326.7,-0.7,1.8,2470.31,13.32,0.071,109.7
2021-01-18T05:49:03,42.805,6.029,0.053,-0.022,0.02,106.0,106.0,103.0,13.4,1505.3,323.5,-0.7,1.8,2470.249,13.32,0.057,112.5
2021-01-18T05:52:03,42.805,6.029,0.045,-0.042,0.012,106.0,106.0,103.0,13.4,1505.3,327.7,-0.7,1.8,2470.295,13.32,0.061,133.0
2021-01-18T05:55:03,42.805,6.029,0.036,-0.059,0.002,106.0,106.0,102.0,13.4,1505.3,324.1,-0.7,1.8,2470.264,13.32,0.069,148.6
2021-01-18T05:58:03,42.805,6.029,0.027,-0.034,0.0,106.0,106.0,102.0,13.4,1505.3,324.5,-0.7,1.8,2470.261,13.32,0.043,141.5
2021-01-18T06:04:03,42.805,6.029,0.076,-0.03,0.021,105.0,106.0,101.0,13.4,1505.2,325.3,-0.7,1.8,2470.343,13.3,0.081,111.5
2021-01-18T06:07:03,42.805,6.029,0.049,-0.038,0.005,106.0,106.0,102.0,13.4,1505.3,325.9,-0.8,1.8,2470.344,13.31,0.062,127.8
2021-01-18T06:10:03,42.805,6.029,0.052,-0.035,0.021,105.0,107.0,101.0,13.4,1505.3,323.3,-0.7,1.9,2470.35,13.31,0.062,123.9
2021-01-18T06:13:03,42.805,6.029,0.069,-0.038,0.021,106.0,106.0,103.0,13.4,1505.3,324.1,-0.7,1.8,2470.346,13.31,0.078,118.8
2021-01-18T06:16:03,42.805,6.029,0.047,-0.052,-0.005,105.0,106.0,103.0,13.3,1505.3,323.7,-0.7,1.8,2470.373,13.32,0.07,137.9
2021-01-18T06:19:03,42.805,6.029,0.054,-0.028,0.022,106.0,106.0,103.0,13.4,1505.3,324.5,-0.7,1.8,2470.355,13.32,0.06,117.4
2021-01-18T06:22:03,42.805,6.029,0.041,-0.017,0.0,106.0,106.0,104.0,13.4,1505.3,327.9,-0.7,1.8,2470.356,13.32,0.044,112.5
2021-01-18T06:25:03,42.805,6.029,0.045,-0.016,0.016,106.0,107.0,101.0,13.4,1505.3,323.2,-0.7,1.9,2470.38,13.32,0.047,109.6
2021-01-18T06:28:03,42.805,6.029,0.028,-0.033,-0.016,106.0,106.0,102.0,13.4,1505.3,325.8,-0.7,1.8,2470.344,13.32,0.043,139.7
2021-01-18T06:31:03,42.805,6.029,0.049,-0.028,0.019,106.0,106.0,103.0,13.4,1505.3,325.1,-0.7,1.8,2470.322,13.32,0.056,119.7
2021-01-18T06:34:03,42.805,6.029,0.057,-0.049,0.011,106.0,107.0,103.0,13.4,1505.3,325.9,-0.7,1.8,2470.331,13.32,0.075,130.7
2021-01-18T06:37:03,42.805,6.029,0.059,-0.029,-0.014,106.0,107.0,102.0,13.4,1505.3,323.0,-0.7,1.8,2470.346,13.32,0.065,116.2
2021-01-18T06:40:03,42.805,6.029,0.039,-0.046,-0.009,105.0,106.0,103.0,13.4,1505.3,325.3,-0.7,1.8,2470.305,13.32,0.06,139.7
2021-01-18T06:43:03,42.805,6.029,0.042,-0.03,0.015,106.0,106.0,103.0,13.3,1505.3,324.5,-0.7,1.9,2470.344,13.32,0.051,125.5
2021-01-18T06:46:03,42.805,6.029,0.046,-0.057,0.001,106.0,106.0,103.0,13.4,1505.3,325.0,-0.7,1.8,2470.351,13.32,0.073,141.1
2021-01-18T06:49:03,42.805,6.029,0.046,-0.052,-0.025,106.0,106.0,103.0,13.4,1505.3,327.9,-0.7,1.8,2470.366,13.32,0.069,138.5
2021-01-18T06:52:03,42.805,6.029,0.082,-0.047,0.002,107.0,106.0,102.0,13.3,1505.3,324.1,-0.7,1.8,2470.351,13.32,0.094,119.8
2021-01-18T06:55:03,42.805,6.029,0.036,-0.032,-0.008,105.0,107.0,103.0,13.4,1505.3,324.0,-0.7,1.9,2470.357,13.32,0.048,131.6
2021-01-18T06:58:03,42.805,6.029,0.057,-0.012,-0.015,106.0,106.0,103.0,13.3,1505.3,325.4,-0.7,1.8,2470.348,13.32,0.058,101.9
2021-01-18T07:04:03,42.805,6.029,0.056,-0.028,-0.007,108.0,107.0,103.0,13.4,1505.2,324.6,-0.7,1.8,2470.387,13.3,0.062,116.6
2021-01-18T07:07:03,42.805,6.029,0.015,-0.036,-0.015,108.0,106.0,104.0,13.4,1505.3,328.4,-0.7,1.8,2470.377,13.31,0.039,157.4
2021-01-18T07:10:03,42.805,6.029,0.05,-0.057,-0.021,106.0,108.0,103.0,13.4,1505.3,326.8,-0.7,1.8,2470.393,13.31,0.075,138.7
2021-01-18T07:13:03,42.805,6.029,0.033,-0.025,-0.01,106.0,108.0,104.0,13.4,1505.3,327.9,-0.7,1.9,2470.41,13.32,0.041,127.1
2021-01-18T07:16:03,42.805,6.029,0.064,-0.023,0.004,107.0,108.0,103.0,13.4,1505.3,323.8,-0.7,1.8,2470.388,13.32,0.068,109.8
2021-01-18T07:19:03,42.805,6.029,0.04,-0.026,-0.032,109.0,107.0,104.0,13.3,1505.3,322.8,-0.7,1.8,2470.384,13.32,0.047,123.0
2021-01-18T07:22:03,42.805,6.029,0.038,-0.031,-0.037,107.0,109.0,104.0,13.4,1505.3,323.2,-0.7,1.8,2470.425,13.32,0.049,129.2
2021-01-18T07:25:03,42.805,6.029,0.037,-0.035,-0.03,108.0,109.0,104.0,13.4,1505.3,325.6,-0.7,1.8,2470.406,13.32,0.05,133.4
2021-01-18T07:28:03,42.805,6.029,0.028,-0.047,0.003,108.0,107.0,104.0,13.4,1505.3,328.1,-0.7,1.8,2470.358,13.32,0.054,149.2
2021-01-18T07:31:03,42.805,6.029,0.033,-0.03,-0.005,109.0,108.0,103.0,13.3,1505.3,328.2,-0.7,1.8,2470.41,13.32,0.044,132.3
2021-01-18T07:34:03,42.805,6.029,0.04,-0.043,0.005,108.0,108.0,103.0,13.3,1505.3,324.9,-0.7,1.8,2470.385,13.32,0.058,137.1
2021-01-18T07:37:03,42.805,6.029,0.044,-0.016,-0.008,109.0,108.0,104.0,13.3,1505.3,325.3,-0.8,1.8,2470.355,13.32,0.046,110.0
2021-01-18T07:40:03,42.805,6.029,0.047,-0.037,-0.005,109.0,108.0,105.0,13.4,1505.3,323.3,-0.7,1.8,2470.38,13.32,0.059,128.2
2021-01-18T07:43:03,42.805,6.029,0.054,-0.04,-0.019,108.0,108.0,105.0,13.4,1505.3,326.3,-0.7,1.8,2470.37,13.32,0.067,126.5
2021-01-18T07:46:03,42.805,6.029,0.043,-0.028,0.011,109.0,109.0,104.0,13.3,1505.3,327.3,-0.7,1.8,2470.453,13.32,0.051,123.1
2021-01-18T07:49:03,42.805,6.029,0.033,-0.023,0.0,109.0,109.0,104.0,13.4,1505.3,327.0,-0.7,1.8,2470.412,13.32,0.04,124.9
2021-01-18T07:52:03,42.805,6.029,0.048,-0.029,-0.01,109.0,109.0,104.0,13.4,1505.3,325.4,-0.7,1.8,2470.41,13.32,0.056,121.1
2021-01-18T07:55:03,42.805,6.029,0.028,-0.026,-0.008,109.0,108.0,105.0,13.3,1505.3,325.3,-0.7,1.8,2470.384,13.32,0.038,132.9
2021-01-18T07:58:03,42.805,6.029,0.056,-0.033,0.021,109.0,108.0,104.0,13.4,1505.3,324.0,-0.7,1.9,2470.452,13.32,0.064,120.5
2021-01-18T08:04:03,42.805,6.029,0.051,-0.031,-0.011,108.0,109.0,104.0,13.4,1505.2,325.2,-0.7,1.8,2470.473,13.3,0.059,121.3
2021-01-18T08:07:03,42.805,6.029,0.083,-0.038,-0.019,109.0,110.0,103.0,13.4,1505.3,325.1,-0.7,1.8,2470.472,13.31,0.091,114.6
2021-01-18T08:10:03,42.805,6.029,0.049,-0.036,0.003,109.0,109.0,104.0,13.3,1505.3,323.5,-0.7,1.8,2470.451,13.31,0.06,126.3
2021-01-18T08:13:03,42.805,6.029,0.026,-0.034,0.033,109.0,108.0,106.0,13.4,1505.3,324.3,-0.7,1.9,2470.453,13.32,0.042,142.6
2021-01-18T08:16:03,42.805,6.029,0.042,-0.035,0.021,108.0,109.0,105.0,13.4,1505.3,324.0,-0.7,1.8,2470.454,13.32,0.054,129.8
2021-01-18T08:19:03,42.805,6.029,0.028,-0.02,-0.007,109.0,109.0,104.0,13.4,1505.3,325.9,-0.7,1.8,2470.456,13.32,0.034,125.5
2021-01-18T08:22:03,42.805,6.029,0.028,-0.024,0.01,109.0,109.0,104.0,13.4,1505.3,324.4,-0.7,1.8,2470.415,13.32,0.036,130.6
2021-01-18T08:25:03,42.805,6.029,0.027,-0.002,0.001,109.0,109.0,104.0,13.4,1505.3,323.8,-0.7,1.8,2470.464,13.32,0.027,94.2
2021-01-18T08:28:03,42.805,6.029,0.038,-0.024,0.015,109.0,109.0,104.0,13.3,1505.3,323.4,-0.7,1.8,2470.445,13.32,0.044,122.3
2021-01-18T08:31:03,42.805,6.029,0.036,-0.038,-0.013,108.0,108.0,105.0,13.3,1505.3,326.9,-0.7,1.8,2470.465,13.32,0.052,136.5
2021-01-18T08:34:03,42.805,6.029,0.034,-0.038,-0.003,108.0,109.0,105.0,13.4,1505.3,326.0,-0.7,1.8,2470.47,13.32,0.05,138.2
2021-01-18T08:37:03,42.805,6.029,0.012,-0.043,0.026,108.0,109.0,105.0,13.4,1505.3,324.4,-0.7,1.9,2470.466,13.32,0.044,164.4
2021-01-18T08:40:03,42.805,6.029,0.059,-0.034,-0.005,109.0,109.0,105.0,13.4,1505.3,324.7,-0.7,1.9,2470.452,13.32,0.068,120.0
2021-01-18T08:43:03,42.805,6.029,0.043,-0.053,0.026,108.0,109.0,104.0,13.4,1505.3,325.1,-0.7,1.8,2470.464,13.32,0.068,140.9
2021-01-18T08:46:03,42.805,6.029,0.034,-0.037,-0.015,110.0,109.0,104.0,13.4,1505.3,327.8,-0.7,1.9,2470.491,13.32,0.05,137.4
2021-01-18T08:49:03,42.805,6.029,0.04,-0.046,0.019,109.0,109.0,105.0,13.4,1505.3,324.0,-0.7,1.8,2470.515,13.32,0.06,139.0
2021-01-18T08:52:03,42.805,6.029,0.052,-0.029,-0.023,107.0,108.0,104.0,13.3,1505.3,323.4,-0.7,1.8,2470.46,13.32,0.059,119.1
2021-01-18T08:55:03,42.805,6.029,0.023,-0.043,-0.024,109.0,109.0,104.0,13.4,1505.3,323.1,-0.7,1.8,2470.531,13.32,0.048,151.9
2021-01-18T08:58:03,42.805,6.029,0.043,-0.028,0.014,108.0,109.0,104.0,13.4,1505.3,324.5,-0.7,1.8,2470.485,13.32,0.051,123.1
2021-01-18T09:04:03,42.805,6.029,0.043,-0.022,0.006,107.0,107.0,104.0,13.4,1505.2,328.2,-0.7,1.9,2470.548,13.3,0.048,117.1
2021-01-18T09:07:03,42.805,6.029,0.043,-0.036,-0.018,108.0,108.0,104.0,13.4,1505.3,327.8,-0.7,1.8,2470.487,13.31,0.056,129.9
2021-01-18T09:10:03,42.805,6.029,0.036,-0.047,0.015,108.0,109.0,103.0,13.4,1505.3,323.5,-0.7,1.8,2470.501,13.31,0.059,142.5
2021-01-18T09:13:03,42.805,6.029,0.04,-0.042,0.021,109.0,109.0,105.0,13.4,1505.3,323.4,-0.7,1.9,2470.506,13.32,0.057,136.4
2021-01-18T09:16:03,42.805,6.029,0.042,-0.044,0.0,109.0,108.0,104.0,13.4,1505.3,328.1,-0.7,1.9,2470.504,13.32,0.06,136.3
2021-01-18T09:19:03,42.805,6.029,0.047,-0.025,0.013,107.0,108.0,104.0,13.3,1505.3,324.4,-0.7,1.8,2470.547,13.32,0.053,118.0
2021-01-18T09:22:03,42.805,6.029,0.026,-0.046,-0.01,108.0,108.0,104.0,13.4,1505.3,326.4,-0.7,1.8,2470.512,13.32,0.052,150.5
2021-01-18T09:25:03,42.805,6.029,0.051,-0.031,-0.002,107.0,109.0,104.0,13.4,1505.3,322.5,-0.7,1.8,2470.525,13.32,0.059,121.3
2021-01-18T09:28:03,42.805,6.029,0.04,-0.04,0.02,108.0,110.0,104.0,13.3,1505.3,324.5,-0.7,1.8,2470.502,13.32,0.056,135.0
2021-01-18T09:31:03,42.805,6.029,0.042,-0.064,0.05,108.0,109.0,104.0,13.3,1505.3,327.7,-0.7,1.8,2470.502,13.32,0.076,146.7
2021-01-18T09:34:03,42.805,6.029,0.039,-0.049,-0.003,109.0,108.0,104.0,13.4,1505.3,325.0,-0.7,1.8,2470.54,13.32,0.062,141.5
2021-01-18T09:37:03,42.805,6.029,0.025,-0.024,-0.004,108.0,109.0,104.0,13.3,1505.3,326.5,-0.7,1.8,2470.53,13.32,0.034,133.8
2021-01-18T09:40:03,42.805,6.029,0.035,-0.03,0.005,108.0,108.0,105.0,13.4,1505.3,325.7,-0.7,1.8,2470.539,13.32,0.046,130.6
2021-01-18T09:43:03,42.805,6.029,0.042,-0.046,0.003,109.0,108.0,104.0,13.4,1505.3,326.1,-0.7,1.8,2470.517,13.32,0.062,137.6
2021-01-18T09:46:03,42.805,6.029,0.015,-0.032,-0.022,109.0,108.0,106.0,13.4,1505.3,323.6,-0.7,1.8,2470.544,13.32,0.035,154.9
2021-01-18T09:49:03,42.805,6.029,0.045,-0.037,0.01,107.0,109.0,105.0,13.4,1505.3,325.4,-0.7,1.8,2470.487,13.32,0.058,129.4
2021-01-18T09:52:03,42.805,6.029,0.011,-0.046,-0.055,107.0,110.0,104.0,13.4,1505.3,326.3,-0.7,1.8,2470.576,13.32,0.047,166.6
2021-01-18T09:55:03,42.805,6.029,0.023,-0.017,-0.004,108.0,109.0,105.0,13.3,1505.3,326.5,-0.7,1.8,2470.533,13.32,0.028,126.5
2021-01-18T10:04:03,42.805,6.029,0.032,-0.038,-0.021,109.0,108.0,105.0,13.4,1505.2,324.5,-0.8,1.8,2470.625,13.29,0.049,139.9